Terug naar catalogus

KUIPER-00101

ActiefCommunicatieLEO
NORAD 65947·PAYLOAD·🇺🇸 United States

Gelanceerd Oct 14, 2025 vanaf Cape Canaveral Space Force Station

Loading…

Volgende Passages (komende 24 uur)

TLE

VersSource: CelesTrak SupGP

Epoch: Sep 15, 2026, 05:09 UTC

1 65947C 25228A   26258.21509259 -.00026267  00000+0 -34377-2 0  2584
2 65947  51.8967 242.4598 0000532  80.4338  85.2450 14.79966143    14

Volg KUIPER-00101 in realtime met AllMySat

Download on the App Store